PRMFG SBMT-SNKI

Flight info

Callsign PRMFG
Flight time 1h 17m
Altitude 45000
Route 233104S0463440W 233852S0460701W DCT NIBRU DCT KEVUN DCT UMBAD DCT XOKIX DCT VAMIX DCT ADA DCT AWAKE DCT 214241S0412714W DCT AKSEP UZ44 MABSI DCT USVAG
Aircraft C25C/M-SDE2E3FGHRWXY/LB1

Departure

Time 2026-05-05 17:04
Airport Campo de Marte Airport (SBMT)

Arrival

Time 2026-05-05 18:21
Airport Cachoeiro do Itapemirim - Raimundo de Andrade Airport (SNKI)
Time Latitude Longitude Altitude Speed Heading
2026-05-05 16:48 -23.51303 -46.63153 2374 ft 0 kts 219°
2026-05-05 16:59 -23.51310 -46.63161 2374 ft 4 kts 249°
2026-05-05 16:59 -23.51278 -46.63178 2374 ft 6 kts 323°
2026-05-05 16:59 -23.51269 -46.63252 2374 ft 14 kts 273°
2026-05-05 17:00 -23.51264 -46.63357 2374 ft 14 kts 273°
2026-05-05 17:00 -23.51221 -46.63418 2374 ft 12 kts
2026-05-05 17:00 -23.51143 -46.63434 2374 ft 12 kts 349°
2026-05-05 17:00 -23.51054 -46.63448 2374 ft 13 kts 354°
2026-05-05 17:01 -23.51012 -46.63527 2374 ft 14 kts 280°
2026-05-05 17:01 -23.50994 -46.63636 2374 ft 15 kts 280°
2026-05-05 17:01 -23.50975 -46.63755 2374 ft 17 kts 280°
2026-05-05 17:01 -23.50953 -46.63882 2373 ft 17 kts 280°
2026-05-05 17:02 -23.50932 -46.64009 2374 ft 17 kts 281°
2026-05-05 17:02 -23.50910 -46.64134 2374 ft 17 kts 279°
2026-05-05 17:02 -23.50892 -46.64246 2374 ft 15 kts 280°
2026-05-05 17:02 -23.50872 -46.64363 2374 ft 16 kts 280°
2026-05-05 17:03 -23.50852 -46.64484 2374 ft 15 kts 280°
2026-05-05 17:03 -23.50791 -46.64531 2374 ft 8 kts 30°
2026-05-05 17:03 -23.50787 -46.64519 2374 ft 0 kts 98°
2026-05-05 17:04 -23.50835 -46.64221 2374 ft 87 kts 101°
2026-05-05 17:04 -23.50992 -46.63282 2475 ft 156 kts 100°
2026-05-05 17:04 -23.51255 -46.61936 3092 ft 203 kts 102°
2026-05-05 17:04 -23.51577 -46.60311 4008 ft 235 kts 100°
2026-05-05 17:05 -23.51896 -46.58453 4931 ft 263 kts 98°
2026-05-05 17:05 -23.52241 -46.56469 5646 ft 280 kts 103°
2026-05-05 17:05 -23.52951 -46.54467 5769 ft 284 kts 117°
2026-05-05 17:05 -23.53824 -46.52547 5848 ft 285 kts 115°
2026-05-05 17:06 -23.54708 -46.50597 6021 ft 282 kts 115°
2026-05-05 17:06 -23.55603 -46.48654 6014 ft 287 kts 116°
2026-05-05 17:06 -23.56275 -46.46653 6421 ft 277 kts 104°
2026-05-05 17:06 -23.56737 -46.44591 6473 ft 284 kts 102°
2026-05-05 17:07 -23.57170 -46.42460 6385 ft 288 kts 102°
2026-05-05 17:07 -23.57560 -46.40353 6443 ft 279 kts 99°
2026-05-05 17:07 -23.57810 -46.38989 6429 ft 276 kts 99°
2026-05-05 17:07 -23.58169 -46.36969 6546 ft 266 kts 100°
2026-05-05 17:08 -23.58577 -46.34395 6871 ft 249 kts 93°
2026-05-05 17:08 -23.58736 -46.33172 7455 ft 241 kts 101°
2026-05-05 17:08 -23.59349 -46.30867 8894 ft 241 kts 109°
2026-05-05 17:08 -23.59713 -46.29697 9604 ft 243 kts 108°
2026-05-05 17:09 -23.60224 -46.27936 10703 ft 239 kts 107°
2026-05-05 17:09 -23.60853 -46.25673 12499 ft 238 kts 108°
2026-05-05 17:09 -23.61175 -46.24525 13285 ft 242 kts 109°
2026-05-05 17:09 -23.61465 -46.22675 14462 ft 249 kts 90°
2026-05-05 17:10 -23.61268 -46.20796 15486 ft 256 kts 81°
2026-05-05 17:10 -23.60968 -46.18827 16539 ft 263 kts 80°
2026-05-05 17:10 -23.60638 -46.16782 17250 ft 287 kts 80°
2026-05-05 17:10 -23.60274 -46.14535 17800 ft 315 kts 80°
2026-05-05 17:11 -23.59882 -46.12110 18288 ft 342 kts 80°
2026-05-05 17:11 -23.59457 -46.09458 18669 ft 368 kts 80°
2026-05-05 17:11 -23.59283 -46.06584 18888 ft 394 kts 98°
2026-05-05 17:11 -23.60339 -46.03879 20162 ft 369 kts 126°
2026-05-05 17:12 -23.61766 -46.01698 22050 ft 338 kts 131°
2026-05-05 17:12 -23.63179 -45.99632 23107 ft 347 kts 124°
2026-05-05 17:12 -23.63826 -45.97080 24058 ft 355 kts 92°
2026-05-05 17:12 -23.63475 -45.94451 24904 ft 357 kts 76°
2026-05-05 17:13 -23.62770 -45.91814 25749 ft 358 kts 73°
2026-05-05 17:13 -23.62121 -45.89197 26604 ft 358 kts 79°
2026-05-05 17:13 -23.61777 -45.86518 27440 ft 357 kts 86°
2026-05-05 17:13 -23.61595 -45.83813 28261 ft 357 kts 88°
2026-05-05 17:14 -23.61347 -45.81080 28659 ft 373 kts 84°
2026-05-05 17:14 -23.60966 -45.78191 28671 ft 398 kts 83°
2026-05-05 17:14 -23.60569 -45.75115 28702 ft 420 kts 84°
2026-05-05 17:14 -23.60211 -45.71885 28738 ft 439 kts 85°
2026-05-05 17:15 -23.59844 -45.68514 28839 ft 454 kts 84°
2026-05-05 17:15 -23.59444 -45.65140 29415 ft 455 kts 84°
2026-05-05 17:15 -23.59036 -45.61725 30070 ft 454 kts 84°
2026-05-05 17:15 -23.58638 -45.58312 30605 ft 454 kts 84°
2026-05-05 17:16 -23.58241 -45.54852 31101 ft 455 kts 84°
2026-05-05 17:16 -23.57843 -45.51430 31609 ft 455 kts 84°
2026-05-05 17:16 -23.57435 -45.48003 32099 ft 456 kts 83°
2026-05-05 17:16 -23.56835 -45.44654 32554 ft 457 kts 76°
2026-05-05 17:17 -23.56101 -45.41287 33038 ft 457 kts 78°
2026-05-05 17:17 -23.55405 -45.37902 33541 ft 457 kts 78°
2026-05-05 17:17 -23.54702 -45.34515 34016 ft 458 kts 77°
2026-05-05 17:17 -23.53965 -45.31088 34362 ft 460 kts 77°
2026-05-05 17:18 -23.53244 -45.27735 34825 ft 458 kts 77°
2026-05-05 17:18 -23.52530 -45.24347 35221 ft 459 kts 77°
2026-05-05 17:18 -23.51805 -45.20917 35655 ft 458 kts 77°
2026-05-05 17:18 -23.51093 -45.17587 36039 ft 458 kts 77°
2026-05-05 17:19 -23.50370 -45.14205 36400 ft 458 kts 78°
2026-05-05 17:19 -23.49650 -45.10825 36762 ft 458 kts 78°
2026-05-05 17:19 -23.48929 -45.07444 37121 ft 458 kts 78°
2026-05-05 17:19 -23.48206 -45.04068 37385 ft 458 kts 78°
2026-05-05 17:20 -23.47482 -45.00693 37637 ft 458 kts 78°
2026-05-05 17:20 -23.46757 -44.97305 37898 ft 458 kts 78°
2026-05-05 17:20 -23.46031 -44.93923 38160 ft 458 kts 78°
2026-05-05 17:20 -23.45288 -44.90546 38422 ft 459 kts 77°
2026-05-05 17:21 -23.44532 -44.87172 38686 ft 459 kts 77°
2026-05-05 17:21 -23.43783 -44.83801 38935 ft 458 kts 78°
2026-05-05 17:21 -23.43039 -44.80415 39141 ft 459 kts 78°
2026-05-05 17:22 -23.41532 -44.73618 39573 ft 459 kts 78°
2026-05-05 17:22 -23.40791 -44.70285 39795 ft 459 kts 78°
2026-05-05 17:22 -23.40040 -44.66904 40010 ft 459 kts 78°
2026-05-05 17:22 -23.39280 -44.63482 40224 ft 459 kts 78°
2026-05-05 17:23 -23.38536 -44.60143 40443 ft 459 kts 78°
2026-05-05 17:23 -23.37781 -44.56761 40661 ft 459 kts 78°
2026-05-05 17:23 -23.37017 -44.53339 40879 ft 460 kts 78°
2026-05-05 17:23 -23.36272 -44.50003 41089 ft 460 kts 78°
2026-05-05 17:24 -23.35516 -44.46628 41302 ft 460 kts 78°
2026-05-05 17:24 -23.34760 -44.43248 41519 ft 460 kts 78°
2026-05-05 17:24 -23.34002 -44.39865 41732 ft 460 kts 78°
2026-05-05 17:24 -23.33233 -44.36446 41945 ft 460 kts 78°
2026-05-05 17:25 -23.32483 -44.33105 42161 ft 460 kts 78°
2026-05-05 17:25 -23.31971 -44.30831 42316 ft 460 kts 78°
2026-05-05 17:25 -23.30953 -44.26306 42602 ft 460 kts 78°
2026-05-05 17:25 -23.30192 -44.22927 42814 ft 460 kts 78°
2026-05-05 17:26 -23.29430 -44.19552 43030 ft 460 kts 78°
2026-05-05 17:26 -23.27894 -44.12747 43127 ft 468 kts 78°
2026-05-05 17:27 -23.26355 -44.05808 43137 ft 476 kts 78°
2026-05-05 17:27 -23.24781 -43.98755 43157 ft 483 kts 78°
2026-05-05 17:28 -23.23185 -43.91618 43171 ft 489 kts 78°
2026-05-05 17:28 -23.21567 -43.84393 43185 ft 494 kts 78°
2026-05-05 17:29 -23.19931 -43.77118 43267 ft 496 kts 78°
2026-05-05 17:29 -23.19113 -43.73476 43370 ft 496 kts 78°
2026-05-05 17:29 -23.18294 -43.69838 43458 ft 496 kts 78°
2026-05-05 17:30 -23.16651 -43.62555 43659 ft 495 kts 78°
2026-05-05 17:30 -23.15830 -43.58924 43767 ft 495 kts 78°
2026-05-05 17:30 -23.15147 -43.55904 43844 ft 495 kts 78°
2026-05-05 17:31 -23.13503 -43.48649 44032 ft 494 kts 78°
2026-05-05 17:31 -23.12681 -43.45021 44136 ft 494 kts 78°
2026-05-05 17:31 -23.11867 -43.41430 44626 ft 485 kts 78°
2026-05-05 17:31 -23.11064 -43.37898 44848 ft 482 kts 78°
2026-05-05 17:32 -23.10257 -43.34350 44957 ft 482 kts 78°
2026-05-05 17:32 -23.09453 -43.30813 45071 ft 482 kts 78°
2026-05-05 17:32 -23.08647 -43.27275 45089 ft 484 kts 78°
2026-05-05 17:33 -23.07021 -43.20152 45114 ft 488 kts 77°
2026-05-05 17:33 -23.05377 -43.12971 45134 ft 491 kts 77°
2026-05-05 17:34 -23.03729 -43.05796 45135 ft 487 kts 77°
2026-05-05 17:34 -23.02095 -42.98696 45151 ft 480 kts 79°
2026-05-05 17:35 -23.00491 -42.91741 45147 ft 470 kts 79°
2026-05-05 17:35 -22.98914 -42.84915 45143 ft 462 kts 79°
2026-05-05 17:36 -22.97362 -42.78209 45145 ft 455 kts 79°
2026-05-05 17:36 -22.95829 -42.71604 45143 ft 449 kts 79°
2026-05-05 17:37 -22.94310 -42.65066 45145 ft 444 kts 79°
2026-05-05 17:37 -22.92804 -42.58606 45146 ft 439 kts 79°
2026-05-05 17:38 -22.91311 -42.52208 45146 ft 436 kts 79°
2026-05-05 17:38 -22.89826 -42.45855 45149 ft 432 kts 79°
2026-05-05 17:39 -22.88351 -42.39563 45150 ft 430 kts 79°
2026-05-05 17:39 -22.86869 -42.33250 45150 ft 427 kts 79°
2026-05-05 17:40 -22.85401 -42.27002 45149 ft 428 kts 78°
2026-05-05 17:40 -22.83932 -42.20766 45154 ft 433 kts 78°
2026-05-05 17:41 -22.82086 -42.14500 45162 ft 442 kts 67°
2026-05-05 17:41 -22.78740 -42.08861 45167 ft 450 kts 49°
2026-05-05 17:42 -22.74027 -42.04403 45164 ft 453 kts 31°
2026-05-05 17:42 -22.69589 -42.01279 45170 ft 456 kts 31°
2026-05-05 17:43 -22.64251 -41.97505 45171 ft 459 kts 31°
2026-05-05 17:43 -22.58878 -41.93720 45174 ft 462 kts 31°
2026-05-05 17:44 -22.53473 -41.89911 45173 ft 465 kts 31°
2026-05-05 17:44 -22.48045 -41.86092 45171 ft 465 kts 31°
2026-05-05 17:44 -22.45385 -41.84220 45170 ft 447 kts 31°
2026-05-05 17:45 -22.42855 -41.82440 45152 ft 431 kts 31°
2026-05-05 17:45 -22.40385 -41.80705 45131 ft 417 kts 31°
2026-05-05 17:45 -22.37993 -41.79027 45085 ft 397 kts 31°
2026-05-05 17:45 -22.35728 -41.77435 44608 ft 384 kts 31°
2026-05-05 17:46 -22.33492 -41.75868 43807 ft 381 kts 31°
2026-05-05 17:46 -22.31262 -41.74306 43170 ft 382 kts 31°
2026-05-05 17:46 -22.29042 -41.72749 42712 ft 379 kts 31°
2026-05-05 17:46 -22.26798 -41.71177 41888 ft 388 kts 31°
2026-05-05 17:47 -22.24533 -41.69590 41319 ft 389 kts 31°
2026-05-05 17:47 -22.22269 -41.68003 40792 ft 388 kts 31°
2026-05-05 17:47 -22.20005 -41.66418 40251 ft 387 kts 31°
2026-05-05 17:47 -22.17750 -41.64841 39721 ft 386 kts 31°
2026-05-05 17:48 -22.15498 -41.63266 39178 ft 386 kts 31°
2026-05-05 17:48 -22.13176 -41.61847 38586 ft 383 kts 22°
2026-05-05 17:48 -22.10704 -41.60805 37909 ft 381 kts 17°
2026-05-05 17:48 -22.08208 -41.59838 37207 ft 381 kts 17°
2026-05-05 17:49 -22.05719 -41.58864 36502 ft 381 kts 18°
2026-05-05 17:49 -22.03220 -41.57884 35794 ft 382 kts 18°
2026-05-05 17:49 -22.00726 -41.56910 35081 ft 382 kts 18°
2026-05-05 17:49 -21.98216 -41.55932 34382 ft 382 kts 18°
2026-05-05 17:50 -21.95714 -41.54958 33582 ft 383 kts 18°
2026-05-05 17:50 -21.93208 -41.53979 32707 ft 384 kts 18°
2026-05-05 17:50 -21.90694 -41.52998 31823 ft 385 kts 18°
2026-05-05 17:50 -21.88168 -41.52015 30933 ft 386 kts 18°
2026-05-05 17:51 -21.85639 -41.51031 29989 ft 388 kts 19°
2026-05-05 17:51 -21.83110 -41.50047 28428 ft 380 kts 19°
2026-05-05 17:51 -21.80622 -41.49076 26394 ft 379 kts 20°
2026-05-05 17:51 -21.78176 -41.48127 24819 ft 376 kts 20°
2026-05-05 17:52 -21.75794 -41.47195 24727 ft 352 kts 20°
2026-05-05 17:52 -21.73516 -41.46315 24527 ft 344 kts 20°
2026-05-05 17:52 -21.71341 -41.45298 24256 ft 338 kts 34°
2026-05-05 17:52 -21.69637 -41.43599 23984 ft 332 kts 49°
2026-05-05 17:53 -21.68100 -41.41763 23693 ft 329 kts 51°
2026-05-05 17:53 -21.66618 -41.39897 23382 ft 326 kts 51°
2026-05-05 17:53 -21.65133 -41.38073 23096 ft 323 kts 50°
2026-05-05 17:53 -21.63641 -41.36280 22816 ft 319 kts 50°
2026-05-05 17:54 -21.62168 -41.34503 22542 ft 317 kts 50°
2026-05-05 17:54 -21.60715 -41.32738 22269 ft 314 kts 50°
2026-05-05 17:54 -21.59269 -41.30978 21998 ft 312 kts 50°
2026-05-05 17:54 -21.57828 -41.29233 21727 ft 311 kts 50°
2026-05-05 17:55 -21.56416 -41.27524 21462 ft 309 kts 50°
2026-05-05 17:55 -21.54990 -41.25796 21197 ft 308 kts 50°
2026-05-05 17:55 -21.53570 -41.24077 20931 ft 307 kts 50°
2026-05-05 17:55 -21.52136 -41.22339 20660 ft 306 kts 50°
2026-05-05 17:56 -21.50741 -41.20651 20396 ft 306 kts 50°
2026-05-05 17:56 -21.49311 -41.18922 20128 ft 305 kts 50°
2026-05-05 17:56 -21.47920 -41.17239 19864 ft 305 kts 50°
2026-05-05 17:56 -21.46514 -41.15537 19597 ft 304 kts 50°
2026-05-05 17:57 -21.45108 -41.13840 19333 ft 304 kts 50°
2026-05-05 17:57 -21.43705 -41.12144 19068 ft 304 kts 49°
2026-05-05 17:57 -21.42284 -41.10427 18801 ft 303 kts 50°
2026-05-05 17:57 -21.40899 -41.08755 18542 ft 303 kts 49°
2026-05-05 17:58 -21.39499 -41.07065 18250 ft 303 kts 49°
2026-05-05 17:58 -21.38102 -41.05379 17972 ft 302 kts 49°
2026-05-05 17:58 -21.36710 -41.03700 17706 ft 300 kts 49°
2026-05-05 17:58 -21.35324 -41.02028 17449 ft 299 kts 49°
2026-05-05 17:59 -21.33946 -41.00366 17186 ft 298 kts 49°
2026-05-05 17:59 -21.32570 -40.98708 16928 ft 297 kts 49°
2026-05-05 17:59 -21.31198 -40.97057 16669 ft 296 kts 49°
2026-05-05 17:59 -21.29832 -40.95408 16409 ft 296 kts 49°
2026-05-05 18:00 -21.28466 -40.93766 16152 ft 295 kts 48°
2026-05-05 18:00 -21.27104 -40.92123 15898 ft 294 kts 48°
2026-05-05 18:00 -21.25743 -40.90488 15642 ft 294 kts 48°
2026-05-05 18:00 -21.24383 -40.88851 15383 ft 293 kts 48°
2026-05-05 18:01 -21.23022 -40.87213 15119 ft 293 kts 48°
2026-05-05 18:01 -21.21664 -40.85582 14863 ft 293 kts 48°
2026-05-05 18:01 -21.20310 -40.83951 14606 ft 293 kts 48°
2026-05-05 18:01 -21.18950 -40.82321 14350 ft 293 kts 48°
2026-05-05 18:02 -21.17596 -40.80692 14094 ft 292 kts 47°
2026-05-05 18:02 -21.16261 -40.79089 13828 ft 292 kts 48°
2026-05-05 18:02 -21.14906 -40.77463 13559 ft 291 kts 48°
2026-05-05 18:02 -21.13530 -40.75880 13297 ft 290 kts 41°
2026-05-05 18:03 -21.11928 -40.74577 13050 ft 288 kts 37°
2026-05-05 18:03 -21.10335 -40.73268 12791 ft 288 kts 37°
2026-05-05 18:03 -21.08751 -40.71962 12541 ft 287 kts 37°
2026-05-05 18:03 -21.07167 -40.70661 12290 ft 286 kts 37°
2026-05-05 18:04 -21.05584 -40.69366 12037 ft 286 kts 37°
2026-05-05 18:04 -21.04004 -40.68074 11787 ft 285 kts 37°
2026-05-05 18:04 -21.02429 -40.66780 11535 ft 285 kts 37°
2026-05-05 18:04 -21.00848 -40.65490 11287 ft 285 kts 37°
2026-05-05 18:05 -20.99273 -40.64197 11035 ft 285 kts 37°
2026-05-05 18:05 -20.97699 -40.62912 10789 ft 285 kts 37°
2026-05-05 18:05 -20.96119 -40.61619 10536 ft 285 kts 37°
2026-05-05 18:05 -20.94546 -40.60330 10288 ft 285 kts 37°
2026-05-05 18:06 -20.92952 -40.59062 10026 ft 285 kts 32°
2026-05-05 18:06 -20.91751 -40.58515 9839 ft 284 kts 11°
2026-05-05 18:06 -20.89165 -40.58720 9494 ft 279 kts 336°
2026-05-05 18:06 -20.87619 -40.59859 9258 ft 264 kts 312°
2026-05-05 18:07 -20.86470 -40.61251 9006 ft 238 kts 310°
2026-05-05 18:07 -20.85423 -40.62546 8739 ft 222 kts 309°
2026-05-05 18:07 -20.84453 -40.63747 8539 ft 196 kts 309°
2026-05-05 18:07 -20.83641 -40.64737 8340 ft 162 kts 310°
2026-05-05 18:08 -20.82947 -40.65588 8188 ft 146 kts 309°
2026-05-05 18:08 -20.82299 -40.66377 8051 ft 137 kts 309°
2026-05-05 18:08 -20.81692 -40.67125 7931 ft 130 kts 309°
2026-05-05 18:08 -20.81097 -40.67845 7822 ft 128 kts 308°
2026-05-05 18:09 -20.80501 -40.68586 7723 ft 137 kts 308°
2026-05-05 18:09 -20.79850 -40.69382 7622 ft 147 kts 309°
2026-05-05 18:09 -20.79157 -40.70228 7507 ft 157 kts 309°
2026-05-05 18:09 -20.78409 -40.71144 7365 ft 168 kts 309°
2026-05-05 18:10 -20.77616 -40.72112 7219 ft 180 kts 309°
2026-05-05 18:10 -20.76762 -40.73157 7056 ft 192 kts 309°
2026-05-05 18:10 -20.75878 -40.74232 6890 ft 190 kts 309°
2026-05-05 18:10 -20.75023 -40.75278 6705 ft 184 kts 309°
2026-05-05 18:11 -20.74187 -40.76299 6542 ft 181 kts 309°
2026-05-05 18:11 -20.73360 -40.77308 6372 ft 179 kts 309°
2026-05-05 18:11 -20.72540 -40.78310 6206 ft 178 kts 310°
2026-05-05 18:11 -20.71727 -40.79302 6051 ft 177 kts 310°
2026-05-05 18:12 -20.70918 -40.80290 5893 ft 177 kts 310°
2026-05-05 18:12 -20.70123 -40.81285 5733 ft 175 kts 306°
2026-05-05 18:12 -20.69720 -40.82491 5572 ft 174 kts 276°
2026-05-05 18:12 -20.69850 -40.83759 5430 ft 172 kts 254°
2026-05-05 18:13 -20.70136 -40.85005 5278 ft 172 kts 256°
2026-05-05 18:13 -20.70418 -40.86247 5126 ft 171 kts 256°
2026-05-05 18:13 -20.70696 -40.87475 4979 ft 170 kts 256°
2026-05-05 18:13 -20.70972 -40.88702 4825 ft 169 kts 256°
2026-05-05 18:14 -20.71247 -40.89921 4672 ft 169 kts 257°
2026-05-05 18:14 -20.71528 -40.91167 4524 ft 177 kts 256°
2026-05-05 18:14 -20.71821 -40.92473 4358 ft 183 kts 256°
2026-05-05 18:14 -20.72119 -40.93805 4208 ft 186 kts 256°
2026-05-05 18:15 -20.72426 -40.95157 4050 ft 188 kts 256°
2026-05-05 18:15 -20.72731 -40.96530 3871 ft 190 kts 257°
2026-05-05 18:15 -20.73032 -40.97841 3698 ft 178 kts 257°
2026-05-05 18:15 -20.73314 -40.99115 3537 ft 172 kts 256°
2026-05-05 18:16 -20.73586 -41.00322 3397 ft 164 kts 256°
2026-05-05 18:16 -20.73847 -41.01488 3233 ft 158 kts 256°
2026-05-05 18:16 -20.74105 -41.02641 3080 ft 160 kts 255°
2026-05-05 18:16 -20.74364 -41.03791 2961 ft 158 kts 255°
2026-05-05 18:17 -20.74619 -41.04925 2824 ft 159 kts 255°
2026-05-05 18:17 -20.74875 -41.06067 2672 ft 154 kts 255°
2026-05-05 18:17 -20.75119 -41.07163 2554 ft 150 kts 255°
2026-05-05 18:17 -20.75367 -41.08257 2431 ft 152 kts 254°
2026-05-05 18:18 -20.75617 -41.09372 2278 ft 153 kts 255°
2026-05-05 18:18 -20.75862 -41.10475 2133 ft 151 kts 256°
2026-05-05 18:18 -20.76020 -41.11190 2059 ft 148 kts 255°
2026-05-05 18:18 -20.76277 -41.12268 1895 ft 145 kts 249°
2026-05-05 18:19 -20.76988 -41.13299 1719 ft 128 kts 219°
2026-05-05 18:19 -20.77456 -41.13687 1544 ft 133 kts 211°
2026-05-05 18:19 -20.78240 -41.14321 1281 ft 146 kts 214°
2026-05-05 18:19 -20.79030 -41.14970 1079 ft 142 kts 211°
2026-05-05 18:20 -20.79807 -41.15602 896 ft 137 kts 216°
2026-05-05 18:20 -20.80547 -41.16217 758 ft 133 kts 210°
2026-05-05 18:20 -20.81255 -41.16791 620 ft 122 kts 211°
2026-05-05 18:20 -20.81917 -41.17317 501 ft 117 kts 211°
2026-05-05 18:21 -20.82563 -41.17833 364 ft 117 kts 216°
2026-05-05 18:21 -20.83197 -41.18365 239 ft 105 kts 214°
2026-05-05 18:21 -20.83637 -41.18724 265 ft 40 kts 217°
2026-05-05 18:21 -20.83690 -41.18783 270 ft 4 kts 260°
2026-05-05 18:22 -20.83687 -41.18806 270 ft 2 kts 298°
2026-05-05 18:22 -20.83675 -41.18824 271 ft 4 kts 306°
2026-05-05 18:22 -20.83652 -41.18845 271 ft 5 kts 359°
2026-05-05 18:22 -20.83638 -41.18815 268 ft 4 kts 15°
2026-05-05 18:23 -20.83634 -41.18818 268 ft 0 kts 312°